Location: ????????
(55.0808°N, 38.5463°E)
Time: 01:56:56
(UTC+00:00)

Nimbus 3 Rocket - Pass Details

Date: 25 September 2024
Orbit: 1072 x 1131 km, 99.9° (Epoch: 03 October)

Event Time Altitude Azimuth Distance (km) Brightness Sun altitude
Rises 00:26:20 0° 19° (NNE) 3,917 9.0 -23.7°
Reaches altitude 10° 00:29:48 10° 1° (N) 2,947 8.0 -23.3°
Maximum altitude 00:33:52 18° 323° (NW) 2,419 7.0 -22.9°
Enters shadow 00:36:27 14° 296° (WNW) 2,632 7.0 -22.6°
